Wind_Speed
50 50 53 55 55 55 56 55 55 59 63 66 68 70 68 66 62 59 57 57 56 55 54 53 52 51 51 50 49 48 48 48 49 50 51 52 52 51 51 51 50 50 49 49 48 47 46 44 44 44 44 45 46 46 46 46 46 47 48 51 55 57 59 60 60 59 58 57 55 54 54 53 54 55 56 56 57 58 58 59 59 58 57 57 56
52 53 55 56 57 56 54 52 53 56 61 65 69 71 72 70 67 64 61 60 60 60 59 58 57 55 53 53 52 51 50 50 50 50 51 52 52 53 53 53 53 53 52 51 51 50 50 48 47 46 46 46 47 48 49 49 49 49 49 49 51 54 56 59 61 61 60 59 59 58 57 56 56 57 57 58 58 59 59 60 61 61 61 60 60
52 54 55 56 56 53 47 46 49 53 56 59 61 64 66 66 65 64 63 63 63 63 62 61 59 57 55 55 55 54 53 53 53 53 52 52 52 53 53 54 54 55 55 55 54 54 53 52 51 50 49 48 48 49 50 51 51 52 52 51 51 52 53 56 58 60 61 61 60 61 60 59 59 59 60 60 59 60 60 61 62 63 63 64 64
50 52 54 54 54 51 46 44 44 42 41 42 45 49 54 60 62 62 63 64 64 64 64 63 62 61 59 56 55 55 56 56 56 55 55 54 53 53 53 53 54 55 56 57 57 57 56 55 55 54 53 52 52 51 51 52 53 53 54 54 54 54 54 54 55 57 59 60 61 61 62 61 60 61 62 63 62 61 61 62 64 64 65 65 66
48 49 50 50 51 50 50 49 47 41 34 31 36 43 48 55 59 58 58 61 63 65 65 65 65 63 61 58 56 56 57 57 58 58 57 57 56 55 55 55 54 54 56 57 58 59 59 59 58 57 57 56 56 56 55 54 55 55 55 56 56 57 57 57 57 57 58 59 59 60 62 63 63 62 63 64 65 64 62 62 64 65 66 66 66
48 48 48 47 44 42 46 52 54 53 46 37 33 35 39 48 55 54 52 55 59 62 65 67 67 65 64 63 63 63 64 65 65 64 62 60 59 58 58 57 56 55 56 57 58 59 60 60 61 60 60 60 59 59 59 59 58 58 58 57 57 58 59 59 59 59 59 60 60 60 61 63 64 64 64 64 66 66 66 64 63 64 66 67 68
50 49 48 45 40 40 46 52 53 55 57 51 44 40 42 51 58 59 58 59 59 59 62 65 67 67 67 66 67 68 68 68 67 65 64 63 62 61 60 59 58 58 58 59 59 60 60 60 61 62 62 62 63 62 62 62 62 62 61 61 60 60 60 61 61 61 62 62 62 62 62 63 63 64 65 65 65 66 67 67 66 65 66 68 69
53 52 52 49 47 50 54 55 54 55 58 61 61 59 59 63 67 67 67 66 62 60 60 62 63 65 66 65 64 64 63 63 62 61 61 62 63 63 62 62 62 61 61 61 61 61 61 61 61 61 62 63 64 64 64 65 65 65 65 64 64 63 63 63 63 63 63 63 64 65 65 65 64 65 65 65 66 66 67 68 69 68 67 67 69
56 56 56 55 55 57 57 57 57 57 58 61 65 68 68 69 70 70 69 66 63 61 60 60 60 61 62 62 61 59 58 58 58 58 58 58 60 61 62 63 63 62 62 62 63 63 63 63 63 63 62 62 63 64 65 66 66 67 67 67 67 67 67 66 66 65 65 66 66 67 67 67 67 67 67 66 66 67 68 68 69 70 69 69 69
58 58 59 58 58 59 60 59 58 59 59 61 64 66 68 69 69 68 67 64 63 61 60 60 60 60 60 60 59 59 58 57 56 56 56 56 56 57 58 60 62 63 63 63 63 64 64 65 66 66 66 65 64 64 65 66 66 67 68 69 69 69 69 69 69 69 69 69 69 69 69 69 69 69 69 69 68 69 70 70 70 71 71 71 72
59 60 61 61 61 61 61 61 61 61 61 62 63 65 66 66 66 65 64 64 63 61 61 61 60 60 60 60 60 59 59 58 57 57 57 56 56 56 57 58 61 63 64 64 64 63 63 63 65 67 68 68 67 67 68 68 68 69 69 69 69 70 70 71 72 72 72 73 73 73 73 72 72 71 71 71 71 71 72 72 72 73 73 73 74
60 61 62 62 62 62 62 62 62 62 63 63 64 64 64 64 63 63 63 62 62 61 61 61 61 61 60 60 60 60 60 60 59 59 58 58 57 57 57 59 61 62 64 65 65 65 64 64 64 65 67 68 68 69 70 71 71 71 71 71 71 71 71 72 73 73 74 75 76 76 76 76 76 76 74 74 74 74 74 74 74 74 75 75 76
60 61 61 62 62 62 62 62 62 62 63 63 63 63 63 62 62 61 61 61 61 61 61 61 61 62 62 61 61 61 62 62 62 62 61 61 60 59 60 61 62 63 63 64 65 66 67 67 67 67 66 66 67 70 71 73 74 74 74 74 74 74 74 74 74 74 75 76 77 79 79 78 79 79 79 77 77 77 77 77 77 77 77 78 78
60 60 61 61 62 62 62 62 62 62 63 63 63 62 61 61 61 61 61 61 61 61 61 62 62 62 63 63 63 63 63 64 64 64 64 64 63 63 63 64 64 65 65 64 64 65 66 68 69 68 67 66 67 69 71 72 74 75 75 75 76 76 76 76 76 76 77 78 78 79 80 80 80 81 82 81 80 81 81 81 81 81 81 81 81
60 61 62 62 62 61 61 60 61 62 62 63 62 62 61 61 61 61 61 61 62 62 63 63 63 64 64 65 65 66 66 66 66 66 66 67 67 67 67 67 67 67 68 67 67 66 67 69 70 69 68 68 69 70 70 71 71 72 74 75 76 76 76 76 76 77 78 79 80 81 81 81 81 82 83 84 83 84 84 84 85 85 84 84 84
61 62 62 62 62 61 60 60 61 61 62 62 62 62 62 62 62 62 62 62 62 63 63 64 65 65 66 67 67 68 69 69 69 69 69 70 70 70 70 70 70 70 70 70 70 70 70 71 71 71 71 72 72 72 72 71 71 71 72 73 74 75 75 75 76 76 77 78 79 80 81 82 82 82 83 85 85 85 86 86 87 88 87 87 87
60 61 61 61 61 61 60 61 61 62 62 63 63 64 64 64 64 64 64 64 64 64 64 65 66 67 67 69 69 70 71 71 71 72 72 73 73 73 74 74 73 73 73 73 73 73 73 74 74 74 75 75 75 75 75 75 74 73 73 73 74 75 76 77 77 77 77 77 78 79 80 81 82 83 84 85 86 87 87 87 89 90 89 89 90
59 59 60 60 61 61 62 62 63 63 64 65 65 65 65 65 66 66 66 66 66 66 66 66 67 68 69 70 71 72 73 73 73 74 74 75 75 76 77 77 77 76 76 76 75 75 76 76 77 77 77 77 77 77 78 78 78 77 76 76 76 76 78 79 80 80 81 81 81 81 81 82 83 84 85 86 87 88 88 88 90 91 90 91 91
60 60 61 62 63 64 64 65 66 66 67 67 67 67 68 68 68 69 69 69 68 68 68 68 69 70 71 71 72 73 74 75 75 75 76 76 77 77 78 79 79 79 79 79 78 78 78 79 79 79 79 79 79 79 79 80 80 80 80 80 81 81 81 81 80 81 82 83 84 84 84 84 85 85 86 87 87 88 89 90 90 91 91 92 92
64 64 65 65 66 67 67 68 69 69 69 70 70 70 70 71 71 71 71 71 70 70 69 70 70 71 72 73 74 74 75 75 76 76 77 78 78 79 79 80 81 81 81 81 81 81 81 81 81 81 81 81 81 81 81 81 82 82 83 84 85 86 87 86 85 84 83 83 84 84 84 85 85 86 87 87 88 89 90 91 91 91 92 92 93
68 69 69 69 70 70 70 71 71 72 72 73 73 73 73 74 74 74 73 73 72 71 71 72 72 73 73 74 74 74 75 75 75 76 77 78 79 80 80 81 82 82 82 82 83 83 82 82 82 82 82 82 82 82 82 82 83 84 85 87 88 89 90 90 90 89 88 88 87 86 86 86 86 86 86 87 88 89 91 92 92 93 93 94 94
70 72 73 73 74 74 74 74 75 76 76 76 76 75 75 75 75 75 74 74 73 74 74 74 74 74 74 74 74 74 74 75 75 75 76 77 78 79 81 81 82 82 83 83 83 83 83 84 83 83 83 82 82 83 83 84 85 85 86 87 89 90 91 92 92 93 93 92 92 91 91 90 90 89 89 89 89 89 90 91 92 93 94 95 95
72 74 76 77 77 77 77 77 77 78 78 78 77 76 76 75 75 75 75 74 75 76 76 76 75 75 74 74 74 74 74 74 74 74 74 75 76 78 80 81 81 82 83 83 83 83 83 83 83 83 83 83 84 84 85 85 86 86 87 87 88 89 90 91 92 92 93 93 93 93 93 93 93 93 93 92 91 91 90 90 90 91 92 93 94
75 77 78 79 79 79 79 79 78 79 78 77 76 75 75 75 75 75 75 75 76 77 77 76 75 74 74 73 73 73 72 72 72 72 72 73 75 76 78 78 79 80 81 81 82 82 82 82 82 83 83 84 85 85 85 85 85 85 86 86 87 87 88 88 89 90 90 90 91 91 92 92 92 93 93 93 93 92 91 90 90 90 90 90 90
77 77 79 79 79 79 79 79 79 78 78 76 75 75 75 75 74 74 75 76 77 77 76 75 74 73 73 72 71 71 71 70 70 70 71 71 72 73 74 74 75 75 77 78 79 80 80 81 81 82 83 84 84 84 84 84 84 84 84 84 84 84 85 85 85 85 86 86 87 87 88 89 89 90 91 91 92 92 91 90 90 89 88 87 87
78 78 80 80 80 80 79 78 78 78 77 76 76 75 75 74 74 74 74 76 76 76 75 74 72 72 71 71 70 69 68 67 67 68 68 69 69 69 70 70 71 71 72 73 74 75 76 77 79 80 81 81 82 82 82 82 82 82 82 82 82 81 81 81 80 80 80 81 81 82 83 84 85 86 87 88 88 88 88 88 88 87 86 85 84
80 80 80 81 82 81 79 78 77 77 76 75 74 73 73 72 72 72 73 74 73 73 73 71 70 70 70 69 68 67 65 64 64 64 65 65 66 66 66 66 66 67 68 68 69 70 71 72 74 75 75 76 77 77 78 78 79 79 78 78 78 77 76 76 75 75 75 75 76 77 78 79 80 81 82 83 83 83 83 83 83 82 82 81 80
80 79 78 79 80 80 79 78 76 75 74 73 71 70 70 70 70 70 71 70 70 70 69 68 68 68 67 66 66 64 63 61 61 62 62 62 62 62 62 62 63 63 64 64 64 65 67 68 69 69 69 70 71 72 72 73 73 73 72 72 71 71 70 70 69 69 69 69 70 71 72 73 74 75 76 77 77 78 78 77 77 76 76 75 74
77 76 75 74 74 75 75 75 74 72 70 69 67 67 67 67 67 68 68 67 67 66 65 65 65 66 65 64 63 61 60 59 59 59 59 60 60 60 59 60 60 60 61 61 62 63 63 64 64 65 65 66 66 67 67 67 67 66 66 65 65 64 63 63 63 62 63 63 64 65 66 68 69 70 71 71 71 72 72 71 71 71 70 70 70
74 73 72 71 70 69 70 70 71 70 68 66 64 63 64 65 65 65 64 63 63 63 63 62 63 63 63 61 60 58 58 57 57 57 58 58 59 59 58 58 58 58 59 59 59 59 60 60 60 61 61 62 62 62 62 62 62 61 60 60 59 58 58 58 57 58 58 59 60 61 63 63 64 64 64 65 65 66 66 65 65 64 64 64 64
69 69 69 68 67 66 65 66 67 67 66 64 62 62 62 62 63 63 62 62 61 61 61 61 60 60 59 58 57 56 56 55 56 56 57 58 58 57 57 56 56 56 56 56 56 56 56 56 57 57 57 57 57 57 57 56 56 55 55 54 53 53 52 53 53 53 55 56 57 58 58 58 58 58 59 60 60 61 60 59 58 57 57 57 58
65 66 66 66 65 64 63 62 63 64 64 63 62 62 61 61 60 61 61 61 61 60 59 58 57 57 56 55 55 55 55 55 55 55 56 56 56 55 55 55 54 54 55 55 54 54 53 53 54 53 53 52 52 51 51 50 50 49 48 48 48 48 47 48 49 50 51 52 52 53 53 53 53 54 55 55 55 55 55 55 54 53 53 53 54
62 63 63 63 63 62 60 59 59 61 62 61 61 61 60 59 58 58 59 59 59 58 57 55 55 54 53 53 53 54 54 54 54 54 53 53 53 53 53 52 53 53 53 53 52 52 51 51 51 50 49 49 48 47 46 46 45 44 44 44 45 45 45 45 46 46 47 48 48 49 49 50 50 50 51 51 51 51 51 51 51 51 50 50 50
58 59 60 60 60 59 57 55 56 57 58 58 58 58 57 57 56 56 56 56 56 55 54 53 53 52 51 52 52 52 52 51 51 51 51 51 51 50 50 51 51 51 51 50 50 50 49 49 48 48 47 47 46 45 44 43 42 42 42 43 43 44 44 44 43 44 45 45 45 46 46 47 47 47 47 48 47 48 48 48 48 47 47 47 47
54 55 56 57 56 55 53 52 52 54 55 55 54 54 54 54 54 54 53 53 52 52 51 51 50 49 49 50 50 49 49 49 49 49 49 49 48 48 48 48 48 48 48 48 48 47 47 47 47 46 45 45 44 43 42 42 41 41 41 42 42 42 42 42 42 42 42 43 43 43 44 44 44 45 45 45 44 44 44 44 43 43 42 42 42
50 51 52 53 52 51 50 49 50 52 53 52 52 52 53 53 53 52 50 49 49 49 49 48 47 47 48 48 48 47 47 47 47 47 47 47 47 46 46 45 45 45 45 45 45 45 45 45 45 45 44 44 43 42 41 40 40 40 40 40 40 40 40 40 39 39 40 40 41 41 41 41 42 42 41 41 40 39 38 38 37 37 36 36 35
48 48 49 49 49 48 47 47 49 50 51 51 50 51 51 52 50 48 47 47 47 47 46 45 44 45 46 46 46 45 45 45 45 45 45 46 45 45 44 43 43 43 43 43 43 44 44 44 44 44 44 43 42 41 40 39 38 38 38 38 38 38 38 37 36 36 37 37 38 38 37 37 37 37 36 34 33 32 31 31 31 31 30 30 30
45 45 45 45 46 45 45 46 47 49 50 49 49 49 49 49 48 46 45 45 44 44 44 43 43 43 43 43 44 44 44 44 44 44 45 44 44 43 42 42 41 42 42 42 43 43 43 44 44 44 43 41 40 40 38 37 36 36 35 35 35 35 34 33 33 33 33 33 33 33 33 32 31 30 28 27 27 27 27 26 26 27 27 27 27
41 41 41 42 42 43 44 44 46 48 48 47 47 48 48 48 47 46 44 43 42 42 42 42 41 40 41 42 43 43 43 44 44 44 43 42 41 41 41 41 41 41 41 42 42 42 43 43 43 42 41 40 39 38 36 34 34 33 32 32 31 31 30 29 29 29 29 29 28 27 27 26 25 24 24 24 24 24 24 25 25 25 25 25 26
36 36 37 38 39 40 41 42 44 45 45 46 47 48 48 47 46 44 43 42 42 42 42 40 39 39 40 41 42 43 43 43 43 42 40 40 40 40 40 40 40 40 40 41 41 42 42 41 41 39 38 38 36 35 33 31 30 30 29 28 27 26 25 25 25 25 25 24 23 22 22 22 22 22 22 23 23 23 23 23 23 23 23 23 23
32 32 33 34 36 38 39 40 41 42 43 45 47 47 46 45 45 44 44 43 42 41 40 39 39 39 40 41 42 43 43 42 41 39 39 39 39 39 39 39 39 39 39 39 40 40 39 39 38 37 36 35 33 31 29 28 27 26 25 24 23 23 22 21 21 21 21 20 19 19 20 21 21 21 21 21 21 21 21 21 21 21 21 21 20
28 28 29 30 32 34 36 37 38 40 41 43 44 44 44 44 44 45 44 42 41 39 39 38 39 40 41 41 41 42 41 39 38 38 39 39 39 38 38 37 37 37 37 37 37 37 37 36 35 33 32 31 29 26 25 24 24 22 21 21 20 20 19 19 19 19 19 18 18 18 18 19 19 19 19 19 19 19 19 19 19 19 19 18 18
25 25 26 26 28 30 32 34 36 38 39 40 41 42 42 43 43 42 41 40 39 38 38 39 40 40 40 40 40 39 38 37 37 38 38 37 36 36 35 35 35 35 35 35 35 34 34 32 31 30 29 27 25 23 22 22 21 20 19 19 18 18 17 17 18 17 16 16 16 17 17 17 18 18 17 17 17 17 16 16 16 16 16 16 16
21 22 22 23 24 26 29 32 34 36 37 38 39 40 40 39 39 39 38 38 38 38 38 39 39 39 38 38 37 36 35 35 36 36 35 34 33 33 33 33 33 32 32 32 32 31 30 29 28 26 25 24 22 20 20 20 19 18 17 17 16 16 16 16 16 15 14 14 15 15 16 16 17 17 17 17 16 16 15 15 14 14 14 14 14
19 19 19 20 21 23 25 27 30 32 34 35 36 36 36 36 36 36 36 36 37 37 37 37 37 36 36 35 34 33 33 34 34 33 32 31 31 31 31 31 30 30 30 29 29 28 27 26 25 24 23 21 20 19 19 19 18 17 16 15 15 15 15 15 14 13 13 14 14 14 15 16 16 17 17 16 16 15 14 13 13 13 12 12 13
16 17 18 19 20 21 23 25 27 29 31 32 33 33 33 34 34 34 34 35 35 35 35 34 34 34 33 32 31 32 32 32 31 30 30 30 30 30 30 29 29 28 28 27 26 25 25 24 23 22 21 20 19 19 18 18 17 16 15 15 14 14 13 13 12 12 12 13 13 14 15 16 15 15 15 15 15 15 14 13 12 12 11 11 11
15 15 16 17 18 20 21 23 25 27 28 29 30 30 30 31 31 32 32 33 33 33 32 32 32 32 31 30 30 31 31 30 29 29 29 29 30 30 29 28 28 27 26 26 25 24 23 22 22 21 20 19 18 18 18 17 16 16 15 14 13 13 13 13 12 11 12 13 14 14 15 14 14 14 14 14 14 14 14 13 12 11 11 11 11
14 14 15 16 17 19 20 21 22 23 25 25 26 27 28 29 30 30 31 31 31 30 30 30 30 30 29 29 29 30 29 29 29 29 29 29 29 29 28 28 27 26 25 24 23 22 22 22 21 20 20 19 18 17 17 17 17 16 15 14 13 13 13 13 12 11 12 13 13 13 13 13 13 13 13 12 13 13 13 13 13 12 12 12 11
14 15 15 16 17 18 20 21 21 22 23 24 24 25 26 27 28 28 29 28 28 28 28 29 29 29 29 29 29 29 28 28 28 29 29 29 29 28 28 27 26 25 24 23 22 22 22 21 20 19 19 19 18 18 18 18 17 16 15 15 15 14 14 13 12 12 12 12 12 12 12 13 13 13 12 12 11 11 12 12 12 12 12 12 12
14 15 15 16 17 18 19 20 21 22 22 23 23 24 24 25 25 25 25 25 25 25 26 27 28 28 28 28 28 28 28 28 28 28 29 29 28 28 27 26 25 24 23 23 23 22 22 21 20 19 19 19 19 18 18 18 18 17 17 16 16 16 15 14 14 13 13 12 12 12 12 12 12 12 12 11 10 10 11 11 12 12 12 12 12
13 14 15 16 17 18 19 19 20 20 21 22 22 22 22 22 22 22 22 21 22 23 24 25 25 26 27 27 28 28 28 28 28 29 29 29 28 28 27 26 24 24 23 23 23 22 22 21 20 19 19 19 19 19 19 19 19 19 18 18 18 17 16 16 15 15 14 13 13 14 13 12 12 12 12 11 10 9 9 10 10 10 11 11 11
Wind_Direction
255 252 252 257 259 259 259 259 261 265 267 270 272 273 274 274 275 274 271 270 271 272 272 272 271 269 267 266 266 266 265 263 262 260 258 257 256 255 255 255 255 257 258 259 259 258 256 256 256 256 256 256 255 254 253 253 252 250 248 245 243 242 240 239 240 241 243 244 245 245 244 245 246 248 249 249 248 247 247 247 247 246 246 246 247
255 254 254 256 259 259 259 260 263 267 271 272 274 275 276 276 275 273 271 269 268 269 271 271 271 270 269 267 266 265 265 264 263 262 260 259 257 256 255 254 254 254 255 256 257 258 257 257 256 255 255 255 255 255 255 254 254 253 251 250 247 245 243 242 243 243 244 245 246 247 247 245 245 245 246 247 248 249 249 249 249 248 248 247 246
254 254 253 253 255 256 257 261 266 270 274 277 278 278 277 276 274 271 270 268 267 267 267 268 269 270 271 270 267 264 264 263 263 263 262 261 259 258 257 256 255 254 254 254 254 255 256 256 256 256 255 255 255 255 255 255 255 254 253 252 251 249 247 246 245 245 246 247 247 247 248 248 247 246 246 246 246 247 249 250 250 250 250 250 250
254 254 253 253 253 251 250 254 261 266 271 275 277 277 277 277 275 272 270 268 267 265 264 264 265 267 270 271 267 264 263 263 263 263 263 263 261 260 259 258 256 256 255 254 254 253 254 254 255 255 255 255 254 254 254 254 255 255 254 253 253 252 251 250 248 248 248 248 248 248 248 249 249 248 248 248 248 247 247 247 249 250 251 252 252
256 255 253 252 252 251 248 247 249 253 258 264 270 275 277 277 277 274 270 268 267 266 265 264 264 265 266 266 265 263 263 263 265 266 265 264 263 262 261 259 257 257 256 256 255 254 253 253 253 253 254 254 254 254 254 254 254 254 254 254 253 253 252 252 251 250 250 250 250 249 249 249 249 249 248 249 249 250 249 247 247 248 250 251 252
256 253 252 252 253 251 250 248 247 246 248 253 260 265 266 268 271 271 269 269 268 268 266 265 265 265 264 263 263 264 264 265 266 267 266 265 263 263 262 260 259 259 259 258 257 256 255 254 253 253 253 253 253 253 253 253 253 254 254 254 254 253 253 253 253 252 252 251 251 251 251 250 250 249 249 249 249 250 251 250 248 247 248 249 250
254 252 252 253 249 245 246 249 248 245 245 246 246 245 247 254 262 267 270 271 270 268 267 265 265 264 264 263 264 266 266 267 266 265 263 262 262 262 261 260 260 261 261 261 260 258 257 256 255 254 253 253 253 253 253 253 253 253 254 254 254 254 254 254 254 254 253 253 252 252 252 252 252 251 251 250 250 250 251 252 251 249 248 248 249
257 256 255 254 250 248 248 251 251 249 246 246 246 246 248 254 259 264 268 270 269 267 266 265 265 265 264 264 264 265 266 266 265 263 261 260 259 259 258 258 259 260 261 261 261 260 258 257 257 256 255 254 254 253 253 253 253 253 253 253 254 254 254 255 255 255 255 255 254 253 252 252 252 252 252 252 251 251 252 252 253 252 251 250 249
260 259 259 257 255 254 254 255 254 253 250 249 249 250 252 255 259 262 265 267 267 266 266 265 265 265 265 265 264 263 263 263 263 262 260 258 258 257 256 256 256 256 257 258 258 258 258 257 257 256 256 255 255 255 255 254 254 254 253 253 253 253 254 254 255 255 255 255 255 255 254 253 252 252 252 252 252 252 252 253 253 254 253 253 252
261 261 259 258 257 257 257 257 256 255 253 252 252 252 253 256 259 261 263 264 265 265 265 265 265 265 265 266 265 264 263 262 261 260 259 257 256 257 257 256 254 253 253 255 256 257 257 257 256 256 255 255 255 255 255 255 255 255 254 254 253 253 253 253 254 254 254 255 255 255 255 255 254 253 253 253 252 252 253 253 253 254 254 255 254
260 259 259 258 257 257 257 257 257 256 254 253 253 253 254 256 258 260 261 263 263 264 264 265 265 265 265 265 266 266 265 264 262 261 260 258 257 258 259 258 256 254 252 253 254 255 256 256 256 256 256 256 256 255 255 255 255 255 255 255 254 254 253 253 253 253 253 254 254 254 255 255 255 254 254 254 254 253 253 253 253 254 254 254 255
258 257 257 257 257 257 256 256 256 256 255 255 255 255 255 256 257 258 259 261 262 263 263 264 264 264 264 264 264 265 266 266 265 264 263 262 260 260 261 260 259 257 256 254 254 253 253 254 255 256 257 257 257 257 256 256 256 256 256 255 255 255 254 254 253 253 253 253 254 254 254 254 255 254 254 254 254 254 254 254 254 254 254 254 255
258 257 256 256 256 257 256 256 255 255 254 254 255 255 256 257 257 257 258 259 260 261 261 262 263 263 263 263 263 263 264 264 265 264 264 263 263 262 261 261 261 261 260 258 257 256 255 253 253 254 255 256 257 257 257 257 257 256 257 257 256 256 255 255 255 254 254 254 254 254 254 253 254 254 254 253 253 254 254 254 254 254 255 255 255
259 258 257 256 255 255 255 255 254 254 253 253 254 255 256 257 258 259 259 259 260 260 261 261 261 262 263 264 263 262 262 262 263 263 264 264 263 263 262 261 261 262 261 261 260 260 259 258 255 253 254 255 257 257 257 257 257 257 257 257 257 257 257 257 256 256 255 255 254 255 255 254 254 254 254 253 253 253 254 254 254 254 254 255 255
258 258 258 258 257 256 255 255 254 254 253 253 253 254 256 257 258 259 260 260 261 261 261 261 261 261 262 263 263 263 262 262 262 262 262 263 263 262 262 261 261 261 261 261 261 261 261 261 261 259 257 257 258 258 258 257 257 257 257 256 256 257 257 257 257 257 256 256 255 255 256 256 255 255 255 255 254 253 253 253 254 254 254 254 255
258 258 259 259 259 259 258 257 256 255 255 255 255 256 256 257 258 258 259 259 260 261 261 262 262 262 262 262 262 262 262 262 262 262 261 261 261 261 261 261 261 261 261 261 261 261 261 261 262 262 262 261 261 261 260 259 258 257 256 255 255 255 256 255 255 255 256 256 256 256 256 257 257 257 256 256 255 254 254 253 254 254 254 254 255
259 260 260 260 260 260 259 259 259 259 259 259 259 259 258 258 258 258 258 259 259 260 261 261 262 263 263 262 262 262 262 262 262 262 261 261 261 261 261 261 261 261 260 260 260 260 261 260 260 261 262 262 263 263 263 263 261 260 258 256 255 254 254 253 253 253 254 255 256 257 257 257 258 258 257 257 257 256 255 255 255 254 254 254 255
262 262 262 262 262 261 261 260 260 261 261 261 261 261 261 261 261 261 261 261 261 261 261 261 261 262 262 262 262 262 262 262 261 261 261 261 261 261 261 261 261 261 261 261 260 260 260 260 260 260 261 261 262 263 264 264 264 264 264 262 260 258 256 255 254 253 253 254 255 256 256 256 257 258 258 258 258 258 257 257 256 256 256 255 255
263 262 261 261 260 261 261 260 260 261 261 262 262 263 264 264 264 264 264 264 263 263 263 262 262 262 261 261 261 261 261 262 262 261 261 261 261 261 261 262 262 262 262 261 261 261 260 261 261 261 261 260 260 261 262 263 264 265 265 265 265 264 263 261 259 257 256 255 255 256 256 256 256 256 257 258 258 258 258 257 257 257 257 257 257
263 262 261 260 260 260 261 262 262 263 263 264 265 266 266 266 267 267 267 266 266 266 265 265 264 263 263 262 261 261 261 261 261 261 261 261 261 261 261 261 261 262 262 262 262 262 262 261 261 261 261 261 261 261 261 261 262 262 263 263 263 264 265 265 264 263 262 260 259 258 258 257 257 257 257 257 257 258 257 257 257 257 257 257 258
262 263 263 263 263 263 263 264 264 265 265 265 265 266 266 267 267 268 268 268 268 268 268 267 266 265 265 264 264 263 262 262 261 261 261 261 261 261 261 261 261 261 261 262 262 263 263 263 263 263 263 263 263 263 262 262 261 261 261 261 261 262 262 263 264 265 265 265 264 263 263 262 261 260 259 259 258 258 258 257 256 256 255 256 256
261 262 263 263 263 263 263 263 263 264 264 264 265 265 266 267 268 268 269 270 270 270 270 269 268 267 267 266 265 265 264 263 262 262 261 260 260 260 261 261 261 261 261 261 262 262 263 264 264 264 265 265 265 264 264 263 263 262 261 261 261 261 261 262 263 263 264 264 265 265 265 265 265 265 264 263 262 261 260 259 258 257 256 255 255
261 261 262 262 262 262 262 262 262 263 264 264 265 266 267 268 269 270 271 271 271 271 270 270 269 269 268 267 266 266 265 264 264 263 262 262 261 260 260 260 260 261 261 262 262 262 263 263 264 265 265 265 265 265 264 264 264 263 263 263 262 262 262 262 263 263 264 264 265 265 266 266 266 266 266 266 265 265 264 263 261 260 258 257 256
262 262 262 263 263 263 264 264 264 264 265 266 267 268 268 269 270 271 272 272 271 270 270 269 269 269 268 268 267 267 266 265 265 264 263 263 262 261 261 261 261 261 262 262 263 263 263 264 264 264 264 264 264 265 265 265 265 265 265 264 264 264 264 264 264 264 264 265 265 266 266 266 266 266 267 267 267 267 266 266 265 264 262 260 259
264 264 264 264 264 265 265 265 266 266 267 268 268 268 269 269 269 270 270 270 270 269 269 269 269 269 268 268 267 267 266 266 266 265 264 264 263 263 263 263 263 263 263 263 263 263 263 264 264 264 265 265 265 266 266 266 266 266 266 266 266 265 265 265 265 265 265 265 266 266 266 266 266 267 267 267 267 267 267 267 266 266 265 264 263
266 266 266 267 267 266 266 267 267 267 268 268 268 267 267 268 268 267 267 268 268 269 269 269 269 269 269 269 268 267 267 266 266 265 265 265 265 265 265 265 265 265 264 264 264 264 264 264 264 264 264 265 266 266 267 267 267 267 267 267 267 267 267 267 267 267 267 267 267 267 267 266 266 266 266 266 266 267 267 267 267 267 267 266 265
267 267 267 267 268 268 268 268 268 268 267 267 267 267 267 267 267 267 267 267 267 268 269 269 269 269 269 269 269 268 268 267 267 266 266 266 266 266 266 266 266 266 266 266 266 265 265 265 264 264 265 265 266 266 266 267 267 268 268 268 268 269 269 269 269 269 269 268 268 268 267 267 267 267 266 266 267 267 267 267 267 267 267 267 267
267 266 266 266 266 267 268 268 268 267 267 267 267 267 267 267 266 266 266 266 267 267 267 268 268 268 268 268 268 268 269 268 268 267 267 267 267 267 267 267 267 267 267 267 266 266 266 265 265 266 266 266 267 267 268 268 268 269 269 270 270 270 271 271 271 271 270 270 269 268 268 267 266 266 266 266 266 267 267 268 268 268 268 269 268
268 268 267 267 266 267 267 268 269 268 268 267 267 266 266 266 266 265 265 265 266 266 266 266 266 267 267 267 267 268 268 268 268 268 268 268 268 268 267 267 267 267 267 267 267 266 266 267 267 267 267 268 268 268 269 270 270 271 271 272 272 272 272 272 272 272 271 270 269 268 267 267 266 266 267 267 268 268 269 269 269 270 270 271 271
268 269 268 268 267 266 266 266 267 267 267 266 265 265 264 264 264 264 264 264 264 264 264 264 264 265 266 267 268 268 268 268 268 268 268 268 268 268 268 268 268 268 268 267 267 267 267 268 268 268 268 269 269 269 270 271 272 272 273 273 273 273 273 272 272 271 270 269 268 268 267 268 268 269 270 270 270 270 271 271 271 272 272 272 272
267 267 267 267 266 265 264 263 264 264 264 264 263 262 261 261 262 262 262 262 262 262 263 263 264 265 266 267 268 268 268 267 267 267 267 267 268 268 269 269 269 268 268 268 268 269 269 269 269 269 269 270 270 271 271 272 273 273 273 273 273 273 272 272 271 270 269 269 269 269 269 270 270 271 271 271 272 273 273 274 274 274 273 273 273
265 264 264 264 263 262 261 261 261 262 262 262 262 261 260 260 260 260 261 261 262 262 262 263 263 264 265 266 267 267 267 267 266 266 266 267 267 268 268 268 269 269 270 270 271 271 271 271 271 271 272 273 273 273 273 273 274 274 274 274 274 273 272 271 271 270 270 270 270 271 271 271 271 272 272 273 274 274 275 275 275 275 274 274 273
262 262 262 261 261 261 260 260 260 260 260 261 261 261 261 260 260 259 260 261 262 262 263 263 264 264 265 265 265 265 265 266 266 266 266 266 267 267 268 269 269 269 270 270 271 272 272 272 273 274 275 275 275 275 275 276 276 276 276 275 275 274 273 272 271 271 271 271 272 272 273 273 273 274 274 274 275 275 275 276 276 275 275 275 274
260 260 260 260 260 260 260 259 259 260 260 260 260 260 261 261 260 260 259 260 261 262 263 263 263 264 264 263 263 263 264 264 265 265 266 266 266 267 267 267 268 268 269 270 271 272 273 274 275 275 275 275 276 276 277 277 277 277 277 276 276 276 275 274 274 273 273 273 273 274 274 274 275 275 275 275 275 276 276 276 276 276 276 275 275
259 258 259 259 260 260 259 258 258 258 258 258 258 259 259 259 259 259 258 259 260 261 261 261 262 262 262 262 262 262 263 263 264 264 265 265 265 265 266 266 267 268 269 270 271 272 273 274 274 274 275 276 276 277 277 278 278 278 277 277 277 276 276 276 276 275 275 275 275 274 274 274 275 274 275 275 275 276 276 276 276 276 276 275 274
259 258 258 258 259 259 259 258 257 257 256 256 256 256 256 256 256 257 258 258 259 259 260 260 260 260 260 261 261 261 262 262 262 263 263 264 264 265 265 266 267 268 269 270 271 272 273 273 274 275 276 277 277 278 278 278 278 278 278 277 277 277 277 276 276 276 275 275 274 274 274 274 274 274 275 275 276 276 276 275 275 275 274 274 273
258 257 256 256 256 256 256 255 255 255 255 255 255 255 255 255 256 256 256 256 257 257 258 258 258 257 257 259 260 260 260 260 261 261 262 263 263 265 266 266 267 268 269 270 270 271 272 273 275 275 276 277 279 279 279 279 279 279 278 277 277 277 276 276 276 275 274 274 274 274 274 274 275 275 276 276 276 275 274 273 272 272 272 271 270
257 256 255 254 253 253 251 250 250 251 252 253 254 254 255 255 256 255 255 255 256 256 257 257 256 255 256 257 258 258 258 259 259 260 261 262 263 265 266 267 267 268 268 269 270 271 272 273 274 276 277 279 280 280 280 280 280 279 278 277 276 275 275 276 275 274 273 273 274 275 275 275 276 276 276 276 275 274 273 272 272 272 272 272 272
257 255 254 252 251 249 248 246 246 247 249 250 251 252 253 253 254 254 255 255 255 255 255 255 255 255 255 256 256 257 257 257 258 259 261 263 264 265 265 266 266 266 267 268 269 270 271 273 274 276 277 279 279 279 280 280 279 278 277 276 276 275 275 275 274 273 273 273 274 275 276 277 278 277 277 275 274 274 275 275 275 275 274 274 275
256 254 252 250 248 247 245 244 243 244 245 246 247 248 250 251 253 254 254 254 253 254 254 255 255 255 255 255 255 256 256 257 258 260 262 263 263 263 263 264 264 265 266 267 268 269 270 272 274 276 277 278 278 279 279 279 277 276 276 275 275 274 273 272 271 272 272 272 273 274 275 275 276 275 274 274 274 275 275 276 276 275 274 273 274
253 251 249 247 245 244 243 241 241 241 240 241 243 245 247 249 250 251 252 252 252 253 254 255 255 254 253 253 254 254 256 257 259 260 261 260 261 261 262 262 263 263 264 265 266 268 269 271 273 275 276 276 277 278 278 277 275 274 273 272 271 269 269 269 268 268 268 269 270 271 270 270 270 271 272 273 273 274 274 274 274 274 273 272 270
251 248 246 244 242 241 240 239 238 238 238 239 240 242 244 245 246 247 249 251 252 253 253 253 253 252 252 252 252 254 255 257 258 258 258 258 259 259 260 260 260 261 262 263 265 266 268 270 272 273 274 274 275 276 275 273 271 269 268 267 266 265 265 265 264 264 266 267 267 267 268 270 271 273 274 274 274 275 275 275 275 274 273 271 269
250 246 243 240 238 237 236 235 235 235 236 236 237 238 239 241 243 245 247 249 250 250 250 250 250 250 250 251 252 253 254 255 255 255 255 256 256 257 257 257 257 258 259 261 262 264 266 268 269 270 271 272 273 272 269 265 263 262 261 261 261 261 261 261 262 264 266 267 269 271 274 277 278 278 278 279 279 280 280 280 279 278 276 273 271
247 244 240 237 235 233 233 232 232 232 233 234 235 236 237 239 241 243 244 245 245 245 246 246 247 248 249 250 251 251 251 251 251 252 253 253 253 253 253 253 253 254 255 256 258 260 262 264 266 267 268 268 267 264 260 257 256 255 254 254 254 256 258 260 263 266 269 271 275 279 282 284 285 286 287 287 287 287 287 286 284 282 279 276 274
245 240 235 231 229 229 229 230 230 231 232 233 234 235 235 236 237 239 239 240 241 242 243 244 245 246 247 248 248 248 248 248 249 249 249 249 248 247 247 248 248 249 250 252 254 257 259 261 262 263 263 261 259 255 252 249 247 247 248 249 250 253 256 259 263 269 274 277 280 282 284 286 289 292 294 295 296 296 295 293 290 285 281 278 274
241 236 231 227 223 222 222 223 225 226 228 230 231 232 233 234 235 236 237 238 239 241 242 243 244 244 245 245 245 245 245 245 245 245 244 243 242 243 243 244 244 245 246 248 250 252 255 257 258 258 256 254 251 246 243 240 239 240 243 245 247 250 255 260 267 273 276 277 280 282 286 289 294 297 301 304 304 303 302 300 296 290 285 280 275
237 233 229 224 221 219 219 220 222 224 226 228 229 230 231 233 234 235 236 237 239 240 242 242 243 243 243 242 241 241 241 240 240 239 238 238 239 239 240 240 241 242 244 245 246 248 251 252 253 252 251 248 244 239 234 233 233 235 238 240 243 249 255 262 267 270 272 275 281 285 288 292 297 301 304 306 306 305 304 303 299 294 288 283 280
232 229 226 222 219 217 217 219 221 224 226 227 228 229 230 231 233 234 236 237 238 239 240 240 240 239 238 237 236 236 235 235 234 234 235 235 236 236 237 238 238 239 241 242 243 245 247 248 248 247 245 243 239 233 230 228 228 229 232 237 240 246 252 258 260 263 268 275 280 284 287 291 296 299 300 301 300 300 301 301 299 297 293 288 283
228 225 223 221 219 218 218 218 219 220 222 224 226 227 228 230 232 233 235 236 237 237 236 235 235 234 232 231 230 230 230 230 230 231 232 233 234 234 235 235 235 236 238 240 241 242 243 244 244 243 241 239 236 230 226 224 223 224 229 234 238 242 247 252 253 256 263 270 273 275 279 286 291 293 294 295 294 294 293 294 295 295 293 290 287
230 225 221 218 217 218 219 220 219 220 220 221 223 224 226 228 229 231 232 233 233 233 232 231 230 229 227 226 225 225 226 226 227 228 229 231 232 233 233 232 233 234 237 239 241 240 239 239 239 240 239 238 235 229 223 220 220 222 226 232 236 239 243 246 248 251 255 260 262 264 268 276 283 287 290 293 294 294 292 291 290 290 290 289 288
231 228 224 220 217 215 216 217 219 219 220 220 220 220 221 222 222 223 223 223 223 224 225 226 226 226 225 224 223 222 223 224 225 226 228 229 230 231 231 231 232 234 237 239 241 240 238 236 236 238 238 238 236 232 226 221 219 221 225 230 234 237 239 242 244 248 250 251 253 256 261 265 271 278 285 290 293 295 295 293 290 288 288 286 285
Height
10544 10542 10536 10535 10537 10538 10539 10540 10539 10537 10534 10532 10529 10526 10528 10532 10535 10538 10539 10538 10537 10538 10539 10540 10541 10542 10543 10545 10546 10547 10548 10549 10550 10550 10551 10552 10553 10554 10555 10556 10557 10558 10559 10560 10561 10562 10563 10564 10564 10565 10566 10567 10568 10570 10571 10572 10573 10574 10576 10577 10579 10581 10583 10585 10586 10588 10589 10589 10590 10590 10591 10593 10594 10595 10596 10597 10598 10600 10601 10602 10603 10605 10606 10607 10609
10535 10534 10532 10531 10532 10533 10535 10536 10535 10532 10528 10526 10523 10519 10519 10523 10527 10529 10531 10533 10533 10532 10532 10533 10534 10536 10537 10539 10540 10541 10542 10543 10543 10543 10544 10545 10547 10548 10549 10551 10552 10553 10554 10554 10555 10556 10557 10558 10559 10559 10560 10561 10562 10563 10564 10565 10566 10567 10569 10570 10572 10574 10576 10578 10579 10581 10582 10583 10584 10584 10585 10587 10588 10589 10590 10591 10592 10593 10594 10596 10596 10597 10598 10600 10601
10525 10525 10525 10525 10525 10527 10531 10531 10528 10526 10523 10520 10517 10512 10512 10514 10517 10520 10522 10524 10526 10527 10526 10526 10527 10529 10531 10533 10535 10535 10535 10535 10535 10536 10537 10539 10540 10542 10543 10545 10546 10547 10548 10548 10549 10550 10551 10552 10553 10554 10555 10555 10556 10557 10558 10558 10559 10561 10562 10563 10565 10567 10568 10570 10572 10573 10575 10576 10577 10578 10579 10580 10581 10582 10583 10584 10586 10587 10588 10589 10590 10591 10592 10593 10595
10517 10517 10517 10518 10520 10523 10526 10525 10521 10519 10518 10515 10510 10508 10507 10507 10509 10512 10514 10515 10516 10518 10519 10520 10521 10522 10525 10527 10528 10528 10527 10527 10527 10529 10531 10532 10534 10535 10537 10538 10539 10540 10541 10542 10542 10544 10545 10546 10547 10548 10549 10549 10550 10550 10551 10552 10553 10554 10555 10556 10558 10559 10560 10562 10564 10565 10567 10568 10570 10571 10572 10573 10574 10575 10576 10577 10578 10580 10581 10582 10583 10584 10585 10587 10588
10509 10510 10511 10512 10516 10519 10520 10519 10518 10517 10515 10511 10508 10507 10506 10503 10503 10505 10507 10508 10508 10508 10510 10513 10514 10516 10519 10520 10520 10520 10519 10519 10520 10522 10524 10526 10527 10528 10529 10530 10531 10532 10533 10534 10535 10536 10537 10539 10540 10541 10542 10543 10543 10544 10544 10545 10546 10546 10547 10549 10550 10551 10553 10554 10556 10557 10559 10561 10562 10563 10565 10566 10567 10567 10568 10569 10570 10572 10573 10574 10575 10577 10578 10579 10581
10503 10505 10506 10509 10516 10517 10512 10511 10513 10514 10512 10509 10507 10508 10505 10500 10498 10499 10501 10502 10502 10502 10502 10504 10505 10508 10511 10513 10512 10512 10511 10512 10513 10515 10517 10518 10520 10521 10522 10522 10523 10525 10525 10526 10527 10529 10530 10531 10532 10533 10534 10535 10535 10536 10537 10537 10538 10539 10540 10541 10542 10544 10545 10546 10548 10549 10551 10553 10554 10556 10556 10558 10559 10560 10561 10561 10562 10563 10564 10565 10567 10569 10570 10571 10572
10497 10500 10503 10507 10511 10509 10503 10502 10505 10507 10507 10504 10502 10502 10500 10495 10493 10493 10494 10496 10497 10497 10496 10496 10497 10499 10502 10504 10504 10503 10503 10503 10504 10506 10508 10510 10511 10513 10514 10515 10515 10516 10517 10517 10519 10521 10522 10523 10524 10525 10526 10526 10527 10528 10529 10530 10531 10532 10533 10534 10535 10536 10537 10538 10540 10541 10543 10545 10546 10547 10548 10549 10551 10552 10553 10554 10555 10555 10556 10556 10558 10560 10562 10562 10564
10488 10491 10495 10498 10499 10496 10494 10494 10496 10498 10500 10497 10493 10492 10491 10488 10488 10488 10488 10489 10490 10490 10489 10489 10490 10490 10492 10495 10496 10496 10496 10495 10495 10496 10499 10502 10502 10503 10505 10506 10507 10508 10508 10508 10510 10511 10513 10514 10515 10516 10517 10518 10519 10520 10521 10522 10523 10524 10525 10526 10527 10528 10530 10531 10532 10533 10535 10536 10537 10538 10539 10540 10542 10544 10545 10547 10548 10548 10548 10548 10549 10551 10553 10553 10554
10479 10481 10483 10486 10486 10485 10484 10485 10487 10489 10490 10489 10486 10485 10484 10482 10482 10482 10482 10482 10482 10482 10482 10482 10482 10483 10484 10485 10487 10487 10488 10487 10486 10487 10490 10492 10493 10494 10495 10496 10497 10498 10499 10499 10500 10501 10504 10506 10506 10506 10507 10508 10510 10511 10512 10513 10514 10515 10516 10518 10519 10520 10522 10523 10524 10525 10526 10526 10527 10528 10529 10531 10533 10535 10536 10538 10540 10540 10540 10541 10541 10541 10543 10545 10545
10471 10471 10472 10474 10475 10475 10475 10476 10477 10479 10479 10480 10479 10478 10477 10476 10476 10476 10475 10475 10475 10475 10475 10474 10475 10476 10476 10477 10478 10478 10479 10479 10479 10480 10481 10483 10484 10485 10485 10486 10486 10488 10489 10490 10490 10492 10494 10496 10496 10496 10497 10499 10501 10502 10503 10503 10504 10505 10506 10508 10510 10511 10513 10514 10515 10516 10517 10517 10517 10518 10519 10521 10523 10525 10527 10528 10531 10532 10531 10533 10533 10533 10534 10536 10535
10462 10461 10462 10464 10465 10465 10466 10467 10468 10468 10469 10469 10470 10470 10470 10470 10470 10469 10468 10468 10468 10468 10468 10467 10468 10468 10469 10470 10470 10470 10470 10471 10472 10472 10472 10474 10476 10476 10476 10476 10476 10478 10479 10481 10481 10483 10485 10486 10486 10486 10487 10489 10492 10493 10493 10493 10494 10495 10496 10498 10500 10501 10503 10504 10506 10507 10507 10508 10508 10509 10510 10511 10513 10515 10517 10519 10521 10522 10522 10523 10525 10525 10525 10527 10525
10452 10452 10453 10455 10455 10456 10458 10458 10459 10459 10459 10459 10460 10461 10462 10462 10462 10462 10461 10461 10461 10461 10461 10460 10460 10461 10461 10462 10463 10463 10463 10462 10463 10464 10464 10465 10467 10468 10468 10468 10467 10468 10470 10472 10472 10473 10475 10477 10477 10477 10478 10480 10481 10482 10482 10483 10484 10485 10486 10488 10490 10491 10492 10493 10495 10497 10498 10498 10498 10498 10500 10502 10502 10504 10507 10510 10510 10511 10512 10513 10515 10516 10516 10517 10516
10442 10443 10445 10446 10447 10448 10449 10450 10451 10451 10450 10450 10451 10452 10453 10454 10454 10454 10454 10454 10454 10454 10454 10453 10452 10452 10453 10454 10455 10456 10455 10454 10454 10455 10455 10456 10458 10460 10460 10460 10459 10459 10461 10462 10463 10463 10465 10467 10468 10468 10469 10471 10471 10471 10472 10472 10473 10474 10476 10477 10479 10480 10481 10483 10485 10487 10488 10488 10487 10486 10488 10492 10493 10492 10495 10500 10501 10501 10502 10503 10504 10506 10506 10506 10507
10432 10433 10435 10436 10437 10438 10440 10441 10442 10442 10442 10442 10443 10444 10444 10445 10446 10446 10446 10447 10446 10446 10446 10446 10445 10445 10445 10445 10446 10446 10446 10445 10446 10447 10447 10448 10449 10451 10451 10451 10451 10451 10451 10452 10453 10453 10454 10454 10455 10458 10461 10462 10462 10461 10461 10461 10462 10464 10466 10467 10467 10468 10470 10473 10475 10477 10476 10476 10476 10476 10476 10480 10482 10482 10483 10487 10490 10491 10491 10492 10493 10494 10496 10495 10497
10422 10423 10424 10425 10426 10428 10430 10432 10433 10433 10433 10434 10435 10436 10436 10436 10437 10437 10438 10438 10438 10438 10438 10437 10437 10437 10437 10436 10436 10435 10435 10436 10438 10439 10439 10439 10440 10441 10441 10441 10442 10442 10442 10442 10443 10444 10444 10443 10444 10447 10450 10451 10450 10449 10450 10452 10453 10454 10455 10456 10456 10456 10459 10462 10463 10464 10464 10464 10465 10465 10465 10467 10470 10471 10470 10473 10477 10479 10480 10482 10482 10482 10484 10486 10486
10412 10413 10414 10415 10416 10418 10420 10422 10422 10423 10424 10425 10426 10427 10427 10428 10428 10429 10429 10429 10430 10430 10429 10429 10428 10428 10428 10427 10426 10426 10426 10427 10428 10429 10429 10429 10430 10431 10431 10431 10432 10433 10433 10433 10433 10434 10434 10434 10434 10436 10437 10437 10437 10438 10440 10441 10442 10443 10444 10444 10445 10447 10448 10449 10451 10452 10452 10452 10453 10454 10454 10455 10456 10458 10458 10459 10462 10466 10468 10470 10470 10469 10473 10476 10475
10404 10405 10405 10406 10408 10409 10411 10411 10412 10413 10414 10415 10415 10416 10417 10417 10418 10419 10420 10420 10421 10421 10421 10421 10420 10419 10418 10417 10416 10416 10416 10417 10417 10418 10418 10418 10419 10420 10420 10421 10422 10423 10423 10424 10424 10424 10424 10424 10424 10424 10425 10426 10427 10427 10428 10428 10430 10431 10433 10434 10435 10436 10436 10437 10438 10439 10440 10441 10442 10442 10444 10444 10443 10444 10445 10447 10448 10451 10455 10457 10457 10457 10462 10464 10464
10395 10397 10397 10397 10398 10399 10400 10401 10401 10402 10403 10403 10403 10404 10405 10406 10407 10408 10409 10410 10411 10412 10412 10412 10411 10410 10408 10407 10406 10406 10406 10406 10407 10407 10408 10408 10408 10409 10409 10410 10410 10411 10412 10413 10414 10414 10414 10413 10413 10413 10414 10416 10417 10417 10418 10418 10419 10420 10421 10423 10424 10423 10423 10424 10426 10427 10428 10430 10430 10431 10432 10432 10432 10432 10432 10434 10436 10437 10441 10444 10443 10445 10449 10451 10452
10385 10386 10387 10387 10387 10387 10388 10389 10390 10391 10391 10391 10392 10393 10394 10395 10395 10396 10397 10398 10400 10401 10401 10401 10400 10399 10398 10396 10396 10396 10396 10395 10396 10397 10397 10397 10398 10398 10398 10398 10399 10400 10401 10402 10403 10403 10403 10402 10402 10402 10403 10404 10406 10407 10408 10408 10409 10410 10411 10411 10411 10409 10409 10410 10412 10414 10415 10417 10418 10419 10420 10420 10421 10421 10421 10422 10423 10424 10426 10429 10430 10432 10434 10436 10437
10373 10374 10374 10375 10376 10377 10377 10378 10378 10379 10380 10380 10381 10382 10383 10383 10383 10384 10385 10387 10388 10389 10389 10389 10388 10387 10386 10385 10385 10386 10386 10386 10386 10387 10387 10386 10386 10387 10387 10387 10387 10388 10389 10389 10390 10391 10391 10391 10391 10392 10392 10393 10394 10396 10397 10398 10399 10399 10399 10398 10398 10396 10396 10397 10398 10400 10401 10403 10404 10405 10406 10407 10408 10409 10409 10409 10410 10411 10412 10414 10416 10418 10420 10421 10422
10362 10362 10363 10364 10365 10366 10367 10367 10367 10367 10368 10369 10370 10370 10371 10371 10371 10372 10373 10375 10376 10377 10376 10375 10375 10374 10374 10374 10374 10375 10375 10375 10376 10376 10376 10375 10375 10375 10375 10375 10375 10376 10377 10378 10378 10379 10379 10380 10380 10381 10382 10383 10384 10385 10386 10386 10386 10386 10386 10385 10385 10385 10385 10385 10385 10387 10388 10389 10390 10391 10392 10393 10394 10395 10396 10396 10397 10397 10397 10398 10401 10402 10404 10406 10407
10354 10352 10352 10353 10353 10354 10355 10356 10355 10355 10356 10357 10359 10360 10360 10360 10360 10361 10362 10363 10364 10363 10362 10362 10362 10362 10362 10363 10363 10363 10363 10364 10364 10364 10364 10364 10364 10363 10363 10363 10364 10364 10365 10366 10367 10368 10368 10369 10369 10370 10371 10372 10373 10373 10373 10372 10372 10372 10372 10372 10372 10372 10373 10373 10373 10374 10375 10376 10377 10377 10378 10379 10380 10380 10381 10381 10381 10381 10382 10383 10384 10386 10388 10390 10393
10343 10341 10340 10339 10340 10341 10342 10343 10344 10344 10344 10345 10348 10349 10349 10349 10349 10350 10351 10352 10351 10350 10348 10349 10349 10349 10350 10350 10351 10351 10351 10352 10352 10353 10353 10353 10352 10351 10351 10351 10352 10353 10354 10355 10356 10357 10358 10359 10360 10361 10361 10361 10360 10359 10358 10357 10358 10358 10358 10359 10359 10359 10360 10360 10360 10361 10362 10363 10364 10365 10365 10365 10366 10365 10365 10365 10365 10366 10366 10367 10368 10369 10371 10373 10376
10329 10328 10327 10327 10327 10328 10329 10330 10332 10333 10333 10335 10337 10338 10338 10339 10340 10340 10340 10339 10337 10336 10335 10336 10337 10337 10338 10338 10339 10339 10340 10340 10341 10342 10341 10341 10340 10339 10339 10340 10342 10343 10344 10345 10346 10347 10348 10349 10349 10349 10348 10348 10347 10346 10345 10345 10346 10346 10346 10346 10347 10347 10347 10348 10348 10349 10350 10351 10351 10351 10351 10351 10351 10351 10350 10350 10350 10350 10350 10351 10352 10352 10353 10356 10358
10316 10316 10314 10314 10315 10315 10316 10318 10319 10320 10322 10324 10326 10327 10327 10327 10329 10329 10327 10325 10323 10322 10322 10324 10325 10325 10326 10326 10327 10328 10329 10330 10330 10330 10330 10330 10330 10329 10329 10331 10332 10333 10333 10334 10335 10336 10337 10338 10337 10336 10335 10335 10334 10334 10334 10335 10335 10335 10334 10334 10334 10335 10335 10335 10336 10337 10338 10338 10339 10339 10338 10337 10337 10337 10336 10335 10335 10335 10335 10335 10336 10336 10337 10339 10341
10301 10302 10301 10300 10300 10301 10304 10306 10307 10308 10310 10312 10313 10313 10314 10315 10316 10316 10315 10313 10312 10311 10311 10312 10313 10314 10314 10314 10316 10317 10318 10320 10320 10320 10320 10320 10320 10320 10320 10321 10321 10322 10323 10323 10324 10325 10326 10326 10325 10324 10323 10324 10324 10323 10323 10323 10323 10322 10322 10322 10322 10322 10322 10323 10324 10325 10326 10326 10326 10326 10325 10324 10323 10323 10322 10321 10321 10321 10320 10321 10322 10322 10323 10324 10326
10286 10288 10289 10288 10287 10287 10290 10292 10294 10295 10297 10298 10299 10301 10302 10303 10304 10304 10303 10302 10302 10302 10301 10302 10303 10302 10302 10303 10304 10305 10307 10309 10310 10310 10310 10310 10310 10311 10311 10312 10312 10312 10312 10313 10314 10314 10314 10314 10313 10313 10313 10314 10313 10313 10312 10311 10311 10311 10311 10311 10311 10311 10312 10313 10313 10314 10314 10314 10314 10313 10312 10311 10310 10309 10308 10308 10307 10307 10307 10307 10309 10309 10309 10311 10313
10272 10274 10276 10277 10276 10276 10277 10278 10280 10282 10284 10286 10287 10289 10290 10291 10291 10291 10291 10292 10292 10292 10292 10293 10292 10292 10292 10293 10294 10295 10297 10299 10299 10299 10300 10300 10301 10301 10302 10302 10302 10302 10302 10303 10303 10303 10303 10302 10303 10303 10304 10304 10303 10302 10301 10301 10301 10301 10301 10301 10301 10302 10302 10302 10303 10303 10303 10302 10301 10300 10299 10298 10297 10296 10295 10295 10295 10295 10295 10296 10297 10298 10298 10299 10301
10258 10260 10263 10265 10266 10267 10267 10267 10267 10269 10272 10274 10276 10278 10279 10279 10279 10279 10280 10282 10282 10282 10283 10284 10283 10281 10282 10283 10285 10287 10288 10289 10290 10290 10291 10291 10291 10292 10292 10293 10293 10293 10293 10293 10293 10293 10293 10293 10294 10294 10294 10294 10293 10292 10292 10291 10291 10291 10292 10292 10292 10292 10293 10293 10292 10292 10291 10290 10289 10288 10287 10286 10285 10285 10285 10285 10285 10284 10285 10285 10286 10287 10288 10289 10290
10247 10248 10250 10252 10254 10256 10257 10257 10256 10257 10259 10262 10265 10267 10267 10267 10267 10268 10269 10271 10272 10272 10273 10274 10274 10273 10273 10274 10276 10278 10280 10281 10281 10282 10282 10282 10282 10282 10283 10284 10284 10284 10283 10283 10284 10284 10284 10285 10285 10285 10284 10284 10284 10284 10283 10283 10283 10283 10283 10283 10283 10283 10283 10282 10282 10281 10280 10279 10278 10277 10276 10276 10276 10276 10276 10276 10276 10275 10275 10276 10277 10278 10278 10279 10279
10236 10237 10238 10239 10241 10243 10245 10246 10247 10247 10248 10250 10253 10254 10255 10256 10257 10258 10259 10260 10262 10263 10264 10265 10265 10265 10266 10267 10269 10270 10271 10272 10273 10273 10273 10273 10273 10274 10274 10275 10275 10275 10275 10275 10275 10276 10276 10277 10276 10276 10275 10275 10275 10275 10275 10275 10275 10275 10274 10274 10274 10274 10274 10273 10272 10271 10270 10269 10268 10268 10268 10269 10269 10268 10267 10267 10266 10266 10265 10266 10267 10269 10269 10269 10269
10225 10225 10225 10226 10228 10230 10233 10235 10237 10237 10238 10240 10241 10242 10244 10246 10248 10249 10250 10250 10252 10253 10255 10256 10257 10258 10259 10261 10262 10262 10263 10263 10264 10264 10265 10265 10265 10266 10266 10266 10267 10267 10267 10267 10267 10268 10268 10268 10267 10267 10267 10267 10267 10267 10267 10267 10267 10267 10266 10266 10265 10265 10265 10264 10263 10262 10262 10261 10261 10260 10261 10261 10261 10260 10259 10259 10258 10258 10257 10257 10258 10259 10259 10259 10259
10214 10214 10214 10215 10217 10219 10222 10226 10227 10227 10228 10230 10231 10232 10233 10236 10239 10241 10241 10242 10243 10245 10247 10249 10250 10251 10252 10254 10254 10254 10254 10255 10255 10256 10257 10258 10258 10259 10259 10259 10259 10259 10259 10259 10260 10260 10260 10260 10260 10260 10260 10259 10259 10259 10259 10259 10259 10259 10259 10258 10257 10256 10256 10256 10256 10255 10254 10254 10254 10253 10253 10253 10252 10252 10252 10251 10251 10250 10249 10249 10249 10250 10250 10250 10251
10204 10204 10203 10205 10207 10209 10213 10216 10218 10218 10219 10220 10222 10223 10225 10227 10230 10232 10233 10234 10235 10237 10239 10241 10242 10244 10245 10246 10246 10246 10247 10248 10248 10249 10249 10250 10251 10252 10252 10252 10252 10252 10252 10252 10253 10253 10253 10253 10253 10253 10252 10252 10252 10252 10253 10253 10253 10252 10252 10251 10250 10249 10248 10248 10248 10248 10247 10247 10247 10247 10246 10245 10245 10245 10244 10243 10243 10243 10242 10242 10242 10242 10242 10243 10243
10194 10195 10195 10195 10197 10200 10203 10207 10208 10209 10209 10211 10213 10215 10216 10218 10220 10222 10224 10226 10228 10230 10232 10233 10235 10236 10237 10237 10238 10239 10240 10241 10242 10242 10242 10243 10244 10244 10245 10245 10246 10246 10246 10246 10246 10246 10247 10246 10246 10246 10246 10246 10246 10246 10246 10246 10246 10246 10245 10244 10243 10243 10242 10242 10242 10241 10240 10240 10240 10240 10239 10238 10238 10237 10237 10237 10237 10237 10236 10236 10236 10236 10236 10236 10236
10185 10186 10187 10188 10189 10192 10195 10198 10199 10200 10200 10202 10204 10206 10208 10209 10211 10213 10216 10219 10221 10223 10224 10225 10228 10229 10229 10229 10231 10232 10233 10234 10235 10235 10236 10236 10237 10238 10239 10240 10240 10240 10240 10240 10240 10241 10240 10240 10240 10240 10239 10239 10239 10240 10240 10240 10240 10240 10239 10238 10237 10236 10236 10236 10236 10235 10234 10234 10233 10233 10233 10232 10232 10231 10231 10231 10232 10231 10231 10231 10231 10230 10230 10230 10230
10176 10177 10178 10180 10182 10184 10187 10189 10190 10191 10192 10194 10196 10197 10199 10200 10203 10206 10210 10212 10214 10216 10217 10219 10221 10222 10222 10223 10224 10225 10226 10227 10228 10229 10229 10230 10230 10232 10233 10234 10234 10234 10234 10235 10235 10234 10234 10234 10234 10234 10233 10234 10234 10234 10234 10234 10234 10233 10233 10232 10231 10230 10230 10230 10230 10229 10228 10228 10227 10227 10227 10227 10226 10226 10227 10227 10227 10226 10226 10226 10226 10225 10225 10225 10225
10167 10169 10170 10172 10174 10176 10178 10180 10182 10182 10184 10186 10188 10189 10191 10193 10196 10200 10203 10205 10207 10209 10210 10212 10213 10215 10216 10217 10218 10218 10219 10220 10221 10222 10223 10224 10225 10227 10227 10228 10228 10229 10229 10229 10229 10229 10228 10228 10228 10228 10228 10228 10228 10228 10229 10229 10228 10227 10227 10227 10226 10225 10225 10225 10224 10223 10223 10222 10222 10222 10222 10222 10222 10222 10222 10222 10222 10222 10221 10221 10221 10221 10221 10220 10220
10160 10161 10163 10165 10167 10168 10170 10172 10173 10175 10177 10179 10181 10182 10184 10186 10189 10192 10196 10199 10201 10202 10203 10205 10207 10208 10210 10211 10211 10212 10213 10214 10215 10216 10218 10219 10220 10221 10222 10222 10223 10223 10223 10223 10223 10223 10223 10222 10223 10223 10223 10223 10223 10223 10224 10224 10223 10222 10221 10221 10220 10220 10220 10220 10219 10218 10218 10218 10218 10218 10218 10218 10218 10218 10218 10218 10218 10217 10217 10217 10217 10217 10217 10217 10217
10153 10154 10156 10157 10159 10161 10162 10164 10166 10168 10170 10173 10174 10175 10177 10180 10183 10186 10189 10191 10193 10195 10196 10199 10201 10203 10204 10204 10205 10206 10207 10208 10209 10211 10213 10214 10215 10215 10216 10217 10217 10217 10218 10218 10218 10217 10217 10218 10218 10218 10218 10218 10218 10219 10219 10219 10218 10217 10217 10216 10216 10216 10216 10215 10215 10215 10215 10215 10215 10215 10215 10215 10215 10215 10214 10214 10214 10214 10214 10214 10214 10214 10214 10214 10213
10145 10147 10148 10150 10152 10153 10156 10158 10160 10162 10164 10166 10167 10169 10172 10175 10178 10180 10182 10184 10186 10188 10191 10193 10195 10197 10198 10199 10200 10200 10201 10203 10205 10207 10208 10208 10209 10210 10211 10211 10212 10212 10212 10213 10213 10213 10213 10213 10213 10214 10213 10213 10214 10214 10214 10214 10213 10213 10212 10212 10212 10212 10212 10212 10212 10212 10212 10212 10212 10212 10212 10212 10212 10212 10212 10212 10212 10212 10211 10211 10211 10210 10210 10210 10210
10139 10141 10142 10144 10145 10147 10150 10152 10154 10156 10158 10160 10162 10165 10167 10170 10171 10173 10175 10178 10181 10184 10186 10188 10189 10191 10192 10193 10194 10195 10197 10199 10201 10201 10201 10202 10203 10205 10205 10206 10206 10207 10208 10208 10208 10208 10208 10209 10209 10209 10209 10209 10210 10210 10210 10210 10209 10209 10209 10209 10209 10209 10209 10209 10209 10209 10209 10209 10209 10209 10209 10209 10209 10209 10209 10209 10209 10209 10208 10208 10208 10207 10207 10207 10207
10134 10135 10137 10138 10140 10142 10144 10146 10149 10151 10153 10155 10157 10159 10161 10163 10166 10168 10171 10174 10177 10179 10181 10182 10183 10184 10186 10187 10189 10191 10193 10194 10195 10195 10196 10197 10199 10200 10200 10201 10201 10202 10203 10203 10204 10204 10204 10204 10205 10205 10205 10205 10206 10206 10206 10206 10206 10206 10206 10206 10206 10206 10206 10206 10206 10206 10207 10206 10206 10206 10206 10206 10206 10206 10206 10206 10205 10205 10205 10205 10204 10204 10204 10203 10203
10130 10131 10132 10134 10135 10137 10139 10141 10143 10145 10147 10149 10151 10154 10156 10159 10162 10165 10167 10169 10171 10173 10175 10176 10178 10179 10181 10182 10184 10186 10188 10188 10188 10189 10191 10193 10194 10195 10195 10196 10197 10198 10198 10199 10199 10199 10200 10200 10200 10201 10201 10202 10202 10203 10203 10203 10203 10203 10203 10203 10203 10203 10203 10203 10203 10204 10204 10203 10203 10203 10203 10203 10203 10203 10203 10202 10202 10202 10202 10202 10201 10201 10201 10201 10201
10127 10128 10129 10130 10132 10134 10135 10138 10140 10142 10144 10146 10148 10151 10153 10156 10158 10160 10162 10164 10166 10168 10169 10171 10173 10175 10176 10177 10180 10182 10182 10183 10184 10185 10187 10188 10189 10190 10190 10191 10192 10193 10194 10194 10195 10195 10196 10196 10196 10197 10197 10198 10199 10200 10199 10199 10200 10200 10200 10200 10201 10201 10201 10201 10201 10202 10201 10201 10201 10201 10201 10200 10200 10200 10200 10199 10199 10199 10199 10199 10199 10198 10198 10198 10199
10124 10125 10126 10127 10128 10130 10132 10134 10136 10138 10140 10142 10144 10147 10149 10151 10153 10156 10158 10160 10161 10163 10165 10167 10169 10170 10171 10173 10176 10177 10177 10178 10180 10181 10182 10183 10184 10185 10186 10187 10188 10189 10190 10190 10191 10192 10192 10192 10193 10193 10194 10195 10196 10196 10196 10196 10197 10197 10197 10198 10198 10198 10198 10199 10199 10199 10199 10199 10199 10198 10198 10198 10198 10198 10198 10197 10197 10196 10196 10196 10196 10196 10196 10197 10197
10121 10122 10124 10125 10126 10127 10129 10131 10132 10134 10136 10139 10141 10143 10146 10148 10150 10152 10154 10155 10157 10159 10161 10163 10164 10165 10167 10170 10171 10172 10173 10174 10176 10177 10178 10179 10180 10181 10182 10183 10184 10185 10186 10187 10187 10188 10189 10189 10190 10190 10191 10192 10193 10193 10193 10194 10194 10194 10195 10195 10196 10196 10196 10196 10197 10197 10197 10197 10197 10197 10197 10197 10197 10197 10196 10196 10195 10195 10195 10194 10194 10194 10195 10195 10195
10119 10120 10121 10123 10124 10125 10127 10128 10130 10132 10134 10136 10138 10140 10142 10144 10146 10148 10149 10151 10153 10155 10157 10158 10159 10161 10163 10165 10166 10167 10169 10170 10171 10172 10174 10175 10176 10177 10179 10180 10181 10182 10183 10183 10184 10185 10185 10186 10186 10187 10187 10188 10189 10190 10191 10191 10191 10192 10192 10193 10193 10194 10194 10195 10195 10196 10195 10195 10195 10195 10195 10195 10195 10195 10195 10194 10194 10193 10193 10193 10193 10193 10193 10193 10193
10117 10118 10120 10121 10122 10123 10124 10126 10128 10129 10131 10133 10135 10137 10139 10141 10142 10144 10146 10148 10150 10151 10153 10154 10155 10157 10159 10160 10161 10163 10164 10166 10167 10169 10170 10171 10172 10174 10175 10176 10177 10178 10179 10180 10181 10182 10182 10183 10183 10184 10184 10185 10186 10187 10188 10188 10189 10189 10190 10190 10191 10191 10192 10193 10193 10194 10194 10194 10194 10194 10194 10194 10194 10193 10193 10193 10192 10192 10192 10192 10191 10191 10191 10192 10192
10116 10117 10118 10119 10120 10121 10122 10123 10125 10126 10128 10130 10132 10133 10135 10137 10139 10141 10142 10144 10146 10147 10148 10150 10151 10153 10154 10156 10157 10159 10161 10162 10164 10165 10166 10168 10169 10170 10172 10173 10174 10175 10176 10176 10177 10178 10179 10179 10180 10180 10181 10181 10183 10184 10185 10186 10186 10187 10187 10188 10189 10189 10190 10191 10191 10192 10192 10192 10193 10193 10192 10192 10192 10192 10192 10191 10191 10191 10191 10190 10190 10190 10190 10190 10190
10115 10116 10116 10117 10118 10119 10120 10121 10123 10124 10125 10127 10128 10130 10132 10133 10135 10137 10139 10140 10142 10143 10144 10146 10147 10149 10150 10152 10154 10155 10157 10159 10160 10161 10163 10164 10165 10167 10168 10169 10170 10171 10172 10173 10174 10174 10175 10176 10176 10177 10178 10178 10179 10180 10182 10183 10183 10184 10185 10186 10186 10187 10187 10188 10189 10190 10190 10190 10191 10191 10191 10191 10191 10190 10190 10190 10190 10190 10189 10189 10189 10189 10189 10189 10189